This is the latest recevied weather packets stored in our database for station/object DC1SK-6. If no packets are shown the sender has not sent any weather packets the latest 10 day(s).
| Time | Temp. | Humidity | Pressure | Rain* | Wind** | Luminosity | Snow |
|---|---|---|---|---|---|---|---|
| 1777464269 | 13.89° C | 38% | - | 0 mm | - | 710 W/m² | - |
| 1777463704 | 13.89° C | 39% | - | 0 mm | - | 773 W/m² | - |
| 1777463127 | 13.89° C | 37% | - | 0 mm | - | 743 W/m² | - |
| 1777462574 | 13.89° C | 37% | - | 0 mm | - | 765 W/m² | - |
| 1777462089 | 13.89° C | 38% | - | 0 mm | - | 720 W/m² | - |
| 1777461604 | 13.33° C | 38% | - | 0 mm | - | 749 W/m² | - |
| 1777461084 | 13.89° C | 40% | - | 0 mm | - | 805 W/m² | - |
| 1777460509 | 13.89° C | 42% | - | 0 mm | - | 800 W/m² | - |
| 1777459974 | 13.33° C | 39% | - | 0 mm | - | 809 W/m² | - |
| 1777459399 | 13.89° C | 40% | - | 0 mm | - | 762 W/m² | - |
| 1777458825 | 13.89° C | 43% | - | 0 mm | - | 769 W/m² | - |
| 1777458284 | 13.33° C | 43% | - | 0 mm | - | 710 W/m² | - |
| 1777457799 | 13.33° C | 46% | - | 0 mm | - | 674 W/m² | - |
| 1777457289 | 13.33° C | 45% | - | 0 mm | - | 699 W/m² | - |
| 1777456729 | 13.33° C | 46% | - | 0 mm | - | 711 W/m² | - |
| 1777456224 | 13.33° C | 46% | - | 0 mm | - | 686 W/m² | - |
| 1777455629 | 12.22° C | 49% | - | 0 mm | - | 751 W/m² | - |
| 1777455104 | 12.22° C | 50% | - | 0 mm | - | 796 W/m² | - |
| 1777454604 | 12.22° C | 51% | - | 0 mm | - | 853 W/m² | - |
| 1777454124 | 11.67° C | 50% | - | 0 mm | - | 817 W/m² | - |
| 1777453554 | 11.67° C | 50% | - | 0 mm | - | 842 W/m² | - |
| 1777453004 | 12.22° C | 51% | - | 0 mm | - | 726 W/m² | - |
| 1777452419 | 11.67° C | 51% | - | 0 mm | - | 788 W/m² | - |
| 1777451929 | 11.67° C | 52% | - | 0 mm | - | 752 W/m² | - |
| 1777451389 | 11.11° C | 51% | - | 0 mm | - | 722 W/m² | - |
* Rain latest hour (hover to see other rain measurements)
** Current wind speed in m/s (hover to see current wind gust speed)